| time (UTC) | temp C | wind direction | speed KPH | gust KPH | rain 1hr cm | rain 24hr cm | rain mn cm | humidity % | barometer mb |
| 20260508073110 | 10 | 0 | 1.6 | 8.0 | 0.00 | 0.00 | 0.00 | 82 | 1017.2 |
| 20260508071555 | 10 | 22 | 1.6 | 8.0 | 0.00 | 0.00 | 0.00 | 82 | 1017.2 |
| 20260508070058 | 10 | 351 | 3.2 | 4.8 | 0.00 | 0.00 | 0.00 | 82 | 1017.1 |
| 20260508064612 | 10 | 5 | 1.6 | 8.0 | 0.00 | 0.00 | 0.00 | 82 | 1016.9 |
| 20260508063109 | 10 | 311 | 1.6 | 6.4 | 0.00 | 0.00 | 0.00 | 83 | 1016.8 |
| 20260508061609 | 10 | 315 | 1.6 | 8.0 | 0.00 | 0.00 | 0.00 | 83 | 1016.8 |
| 20260508060111 | 10 | 28 | 1.6 | 8.0 | 0.00 | 0.00 | 0.00 | 83 | 1016.5 |
| 20260508054559 | 10 | 5 | 3.2 | 9.7 | 0.00 | 0.00 | 0.00 | 83 | 1016.5 |
| 20260508053058 | 10 | 0 | 0.0 | 8.0 | 0.00 | 0.00 | 0.00 | 83 | 1016.5 |
| 20260508051609 | 10 | 311 | 4.8 | 8.0 | 0.00 | 0.00 | 0.00 | 83 | 1016.3 |
| 20260508050055 | 10 | 342 | 0.0 | 6.4 | 0.00 | 0.00 | 0.00 | 83 | 1016.3 |
| 20260508044552 | 9 | 0 | 1.6 | 4.8 | 0.00 | 0.00 | 0.00 | 83 | 1016.5 |
| 20260508043051 | 10 | 0 | 1.6 | 6.4 | 0.00 | 0.00 | 0.00 | 83 | 1016.4 |
| 20260508041555 | 10 | 333 | 1.6 | 8.0 | 0.00 | 0.00 | 0.00 | 83 | 1016.3 |
| 20260508040059 | 10 | 5 | 1.6 | 6.4 | 0.00 | 0.00 | 0.00 | 82 | 1016.1 |
| 20260508034554 | 10 | 360 | 3.2 | 12.9 | 0.00 | 0.00 | 0.00 | 83 | 1015.9 |
| 20260508033058 | 10 | 0 | 0.0 | 6.4 | 0.00 | 0.00 | 0.00 | 82 | 1015.9 |
| 20260508031558 | 10 | 5 | 1.6 | 6.4 | 0.00 | 0.00 | 0.00 | 82 | 1016.0 |
| 20260508024617 | 10 | 0 | 1.6 | 8.0 | 0.00 | 0.00 | 0.00 | 82 | 1015.7 |
| 20260508023058 | 10 | 46 | 3.2 | 9.7 | 0.00 | 0.00 | 0.00 | 82 | 1015.5 |
| 20260508021606 | 10 | 42 | 1.6 | 8.0 | 0.00 | 0.00 | 0.00 | 82 | 1015.6 |
| 20260508020057 | 10 | 27 | 1.6 | 4.8 | 0.00 | 0.00 | 0.00 | 82 | 1015.5 |
| 20260508014557 | 10 | 24 | 3.2 | 11.3 | 0.00 | 0.00 | 0.00 | 82 | 1015.6 |
| 20260508013051 | 10 | 5 | 3.2 | 9.7 | 0.00 | 0.00 | 0.00 | 82 | 1015.6 |
| 20260508011604 | 10 | 57 | 1.6 | 6.4 | 0.00 | 0.00 | 0.00 | 83 | 1015.6 |
| 20260508010057 | 10 | 355 | 3.2 | 9.7 | 0.00 | 0.00 | 0.00 | 83 | 1015.6 |
| 20260508004603 | 10 | 13 | 0.0 | 12.9 | 0.00 | 0.00 | 0.00 | 83 | 1015.6 |
| 20260508003052 | 10 | 40 | 3.2 | 8.0 | 0.00 | 0.00 | 0.00 | 83 | 1015.6 |
| 20260508001554 | 10 | 15 | 1.6 | 8.0 | 0.00 | 0.00 | 0.00 | 84 | 1015.5 |
| 20260508000057 | 10 | 22 | 0.0 | 4.8 | 0.00 | 0.00 | 0.00 | 84 | 1015.5 |
| 20260507234557 | 10 | 17 | 0.0 | 4.8 | 0.00 | 0.00 | 0.00 | 84 | 1015.4 |
| 20260507233100 | 10 | 0 | 0.0 | 4.8 | 0.00 | 0.00 | 0.00 | 85 | 1015.4 |
| 20260507231559 | 10 | 0 | 0.0 | 3.2 | 0.00 | 0.00 | 0.00 | 85 | 1015.7 |
| 20260507230108 | 10 | 0 | 0.0 | 6.4 | 0.00 | 0.00 | 0.00 | 84 | 1015.5 |
| 20260507224555 | 10 | 0 | 0.0 | 0.0 | 0.00 | 0.00 | 0.00 | 84 | 1015.3 |
| 20260507223050 | 10 | 318 | 0.0 | 4.8 | 0.00 | 0.00 | 0.00 | 83 | 1015.4 |
| 20260507221551 | 11 | 351 | 0.0 | 3.2 | 0.00 | 0.00 | 0.00 | 82 | 1015.2 |
| 20260507220059 | 11 | 32 | 1.6 | 11.3 | 0.00 | 0.00 | 0.00 | 82 | 1015.0 |
| 20260507214555 | 11 | 332 | 0.0 | 8.0 | 0.00 | 0.00 | 0.00 | 82 | 1015.0 |
| 20260507213055 | 11 | 17 | 1.6 | 6.4 | 0.00 | 0.00 | 0.00 | 82 | 1014.7 |
| 20260507211556 | 11 | 0 | 3.2 | 9.7 | 0.00 | 0.00 | 0.00 | 82 | 1014.7 |
| 20260507210108 | 11 | 352 | 0.0 | 6.4 | 0.00 | 0.00 | 0.00 | 82 | 1014.7 |
| 20260507204558 | 11 | 348 | 0.0 | 6.4 | 0.00 | 0.00 | 0.00 | 81 | 1014.5 |
| 20260507203115 | 11 | 42 | 3.2 | 8.0 | 0.00 | 0.00 | 0.00 | 80 | 1014.3 |
| 20260507201554 | 11 | 0 | 1.6 | 8.0 | 0.00 | 0.00 | 0.00 | 80 | 1014.6 |
| 20260507200100 | 11 | 5 | 1.6 | 6.4 | 0.00 | 0.00 | 0.00 | 81 | 1014.5 |
| 20260507194618 | 12 | 9 | 1.6 | 9.7 | 0.00 | 0.00 | 0.00 | 80 | 1014.5 |
| 20260507193058 | 12 | 324 | 3.2 | 8.0 | 0.00 | 0.00 | 0.00 | 80 | 1014.5 |
| 20260507191555 | 12 | 308 | 1.6 | 9.7 | 0.00 | 0.00 | 0.00 | 79 | 1014.4 |
| 20260507190057 | 12 | 348 | 3.2 | 12.9 | 0.00 | 0.00 | 0.00 | 79 | 1014.4 |
| 20260507184554 | 12 | 360 | 3.2 | 9.7 | 0.00 | 0.00 | 0.00 | 78 | 1014.1 |
| 20260507183056 | 13 | 18 | 3.2 | 6.4 | 0.00 | 0.00 | 0.00 | 78 | 1014.1 |
| 20260507181553 | 13 | 34 | 4.8 | 9.7 | 0.00 | 0.00 | 0.00 | 77 | 1013.9 |
| 20260507180058 | 13 | 5 | 3.2 | 9.7 | 0.00 | 0.00 | 0.00 | 77 | 1013.5 |
| 20260507174602 | 13 | 40 | 1.6 | 6.4 | 0.00 | 0.00 | 0.00 | 77 | 1013.2 |
| 20260507173129 | 13 | 352 | 3.2 | 12.9 | 0.00 | 0.00 | 0.00 | 76 | 1012.8 |
| 20260507171550 | 14 | 5 | 8.0 | 17.7 | 0.00 | 0.00 | 0.00 | 75 | 1012.3 |
| 20260507170054 | 15 | 5 | 4.8 | 12.9 | 0.00 | 0.00 | 0.00 | 74 | 1012.6 |
| 20260507164552 | 15 | 355 | 1.6 | 14.5 | 0.00 | 0.00 | 0.00 | 74 | 1012.2 |
| 20260507163051 | 16 | 34 | 4.8 | 12.9 | 0.00 | 0.00 | 0.00 | 73 | 1012.2 |
| 20260507161602 | 16 | 5 | 3.2 | 12.9 | 0.00 | 0.00 | 0.00 | 73 | 1012.4 |
| 20260507154557 | 16 | 319 | 3.2 | 11.3 | 0.00 | 0.00 | 0.00 | 72 | 1012.6 |
| 20260507153059 | 16 | 301 | 6.4 | 11.3 | 0.00 | 0.00 | 0.00 | 72 | 1012.4 |
| 20260507151552 | 17 | 26 | 3.2 | 12.9 | 0.00 | 0.00 | 0.00 | 72 | 1012.4 |
| 20260507150054 | 17 | 285 | 8.0 | 12.9 | 0.00 | 0.00 | 0.00 | 72 | 1012.3 |
| 20260507144600 | 17 | 286 | 4.8 | 12.9 | 0.00 | 0.00 | 0.00 | 72 | 1012.1 |
| 20260507143059 | 17 | 298 | 8.0 | 19.3 | 0.00 | 0.00 | 0.00 | 72 | 1011.9 |
| 20260507141559 | 17 | 288 | 6.4 | 12.9 | 0.00 | 0.00 | 0.00 | 72 | 1011.9 |
| 20260507140050 | 17 | 323 | 4.8 | 14.5 | 0.00 | 0.00 | 0.00 | 72 | 1012.0 |
| 20260507134553 | 17 | 281 | 4.8 | 11.3 | 0.00 | 0.00 | 0.00 | 72 | 1011.9 |
| 20260507133139 | 17 | 317 | 3.2 | 12.9 | 0.00 | 0.00 | 0.00 | 73 | 1011.9 |
| 20260507131550 | 17 | 5 | 4.8 | 16.1 | 0.00 | 0.00 | 0.00 | 71 | 1011.7 |
| 20260507130107 | 17 | 307 | 4.8 | 16.1 | 0.00 | 0.00 | 0.00 | 73 | 1011.8 |
| 20260507124601 | 17 | 292 | 6.4 | 22.5 | 0.00 | 0.00 | 0.00 | 73 | 1011.6 |
| 20260507123054 | 17 | 360 | 6.4 | 17.7 | 0.00 | 0.00 | 0.00 | 73 | 1011.6 |
| 20260507121555 | 17 | 280 | 3.2 | 16.1 | 0.00 | 0.00 | 0.00 | 73 | 1011.6 |
| 20260507120055 | 17 | 299 | 6.4 | 20.9 | 0.00 | 0.00 | 0.00 | 73 | 1011.3 |
| 20260507114600 | 17 | 292 | 8.0 | 19.3 | 0.00 | 0.00 | 0.00 | 73 | 1011.3 |
| 20260507113052 | 17 | 295 | 8.0 | 19.3 | 0.00 | 0.00 | 0.00 | 72 | 1011.2 |
| 20260507111553 | 18 | 304 | 9.7 | 22.5 | 0.00 | 0.00 | 0.00 | 71 | 1010.9 |
| 20260507110057 | 19 | 308 | 6.4 | 24.1 | 0.00 | 0.00 | 0.00 | 70 | 1010.6 |
| 20260507104551 | 20 | 299 | 4.8 | 12.9 | 0.00 | 0.00 | 0.00 | 68 | 1010.3 |
| 20260507103056 | 20 | 345 | 4.8 | 14.5 | 0.00 | 0.00 | 0.00 | 67 | 1010.2 |
| 20260507101555 | 20 | 282 | 6.4 | 14.5 | 0.00 | 0.00 | 0.00 | 68 | 1010.1 |
| 20260507100053 | 20 | 284 | 6.4 | 17.7 | 0.00 | 0.00 | 0.00 | 66 | 1010.1 |
| 20260507094558 | 20 | 236 | 12.9 | 24.1 | 0.00 | 0.00 | 0.00 | 65 | 1009.9 |
| 20260507093050 | 20 | 238 | 9.7 | 19.3 | 0.00 | 0.00 | 0.00 | 65 | 1009.7 |
| 20260507091549 | 20 | 285 | 6.4 | 19.3 | 0.00 | 0.00 | 0.00 | 66 | 1009.6 |
| 20260507090057 | 20 | 253 | 4.8 | 17.7 | 0.00 | 0.00 | 0.00 | 67 | 1009.4 |
| 20260507084557 | 20 | 261 | 8.0 | 17.7 | 0.00 | 0.00 | 0.00 | 66 | 1009.4 |
| 20260507083052 | 20 | 215 | 11.3 | 24.1 | 0.00 | 0.00 | 0.00 | 63 | 1009.2 |
| 20260507081550 | 20 | 216 | 11.3 | 22.5 | 0.00 | 0.00 | 0.00 | 64 | 1009.1 |
| 20260507080101 | 20 | 284 | 8.0 | 17.7 | 0.00 | 0.00 | 0.00 | 66 | 1009.3 |
| 20260507074553 | 19 | 291 | 4.8 | 20.9 | 0.00 | 0.00 | 0.00 | 68 | 1008.8 |